TimeMDT,TemperatureF,Dew PointF,Humidity,Sea Level PressureIn,VisibilityMPH,Wind Direction,Wind SpeedMPH,Gust SpeedMPH,PrecipitationIn,Events,Conditions,WindDirDegrees,DateUTC
12:55 AM,55.9,34.0,44,29.89,10.0,East,5.8,-,N/A,,Clear,100,2012-09-06 06:55:00
1:55 AM,57.0,35.1,44,29.87,10.0,ENE,10.4,-,N/A,,Clear,70,2012-09-06 07:55:00
2:55 AM,59.0,36.0,42,29.85,10.0,East,10.4,-,N/A,,Clear,90,2012-09-06 08:55:00
3:55 AM,55.9,36.0,47,29.84,10.0,East,6.9,-,N/A,,Clear,90,2012-09-06 09:55:00
4:55 AM,55.0,36.0,49,29.81,10.0,ESE,9.2,-,N/A,,Clear,110,2012-09-06 10:55:00
5:55 AM,52.0,36.0,54,29.81,10.0,East,6.9,-,N/A,,Clear,100,2012-09-06 11:55:00
6:55 AM,54.0,37.0,53,29.81,10.0,ENE,4.6,-,N/A,,Clear,70,2012-09-06 12:55:00
7:55 AM,60.1,37.9,44,29.81,10.0,Calm,Calm,-,N/A,,Clear,0,2012-09-06 13:55:00
8:55 AM,64.9,39.0,39,29.82,10.0,West,4.6,-,N/A,,Clear,270,2012-09-06 14:55:00
9:55 AM,70.0,39.9,33,29.82,10.0,WNW,11.5,-,N/A,,Clear,300,2012-09-06 15:55:00
10:55 AM,77.0,39.0,25,29.82,10.0,North,16.1,-,N/A,,Clear,360,2012-09-06 16:55:00
11:55 AM,78.1,39.0,25,29.83,10.0,North,18.4,-,N/A,,Clear,350,2012-09-06 17:55:00
12:55 PM,82.0,39.9,22,29.84,10.0,North,17.3,24.2,N/A,,Clear,360,2012-09-06 18:55:00
1:55 PM,82.9,39.9,22,29.83,10.0,NNE,15.0,24.2,N/A,,Clear,20,2012-09-06 19:55:00
2:55 PM,84.0,39.9,21,29.83,10.0,NNE,21.9,26.5,N/A,,Clear,20,2012-09-06 20:55:00
3:55 PM,84.0,39.0,20,29.84,10.0,NNE,17.3,27.6,N/A,,Clear,30,2012-09-06 21:55:00
4:55 PM,82.0,37.9,21,29.87,10.0,NNE,15.0,26.5,N/A,,Clear,20,2012-09-06 22:55:00
5:55 PM,80.1,37.9,22,29.90,10.0,NNE,15.0,-,N/A,,Clear,30,2012-09-06 23:55:00
6:55 PM,75.9,37.9,25,29.92,10.0,North,16.1,-,N/A,,Clear,10,2012-09-07 00:55:00
7:55 PM,71.1,41.0,34,29.96,10.0,North,15.0,-,N/A,,Clear,360,2012-09-07 01:55:00
8:55 PM,69.1,42.1,38,30.00,10.0,North,11.5,-,N/A,,Clear,10,2012-09-07 02:55:00
9:55 PM,66.9,44.1,44,30.04,10.0,North,10.4,-,N/A,,Mostly Cloudy,350,2012-09-07 03:55:00
10:55 PM,66.9,44.1,44,30.03,10.0,North,13.8,-,N/A,,Overcast,350,2012-09-07 04:55:00
11:55 PM,66.0,44.1,45,30.03,10.0,NNW,9.2,-,N/A,,Mostly Cloudy,340,2012-09-07 05:55:00